Flag for Chile Weather past 2 weeks in Santiago, Chile

Now
68 °F

Clear.


Feels Like: 68 °F
Forecast: 58 / 89 °F
Wind: 6 mph from South

Location: Pudahuel

Current Time: Oct 25, 2014 at 2:53:09 AM

Latest Report: Oct 25, 2014 at 2:00 AM


Visibility: 10 mi

Pressure: 29.89 "Hg

Humidity: 38%

Dew point: 41 °F

Location of SantiagoLocation

Historic Weather in Santiago — Graph

°F

Santiago temperature yesterday

Maximum temperature yesterday: 90 °F (at 5:00 PM)
Minimum temperature yesterday: 54 °F (at 7:00 AM)
Average temperature yesterday: 73 °F

Past Weeks' High & Low Weather Summary

 TemperatureHumidityPressure
High90 °F (Oct 24, 5:00 PM)88% (Oct 22, 7:00 AM)30.15 "Hg (Oct 22, 7:00 AM)
Low37 °F (Oct 10, 7:00 AM)13% (Oct 12, 4:00 PM)29.89 "Hg (Oct 14, 4:00 PM)
Average64 °F48%30.01 "Hg
* Reported Oct 10 1:00 AM — Oct 25 1:00 AM, Santiago, Weather by CustomWeather, © 2014

Note: Actual official high and low records may vary slightly from our data, if they occured in-between our weather recording intervals... More about our weather records

Advertising

Santiago weather history for previous 24 hours

 ConditionsComfort  
Time TempWeatherWind HumidityBarometerVisibility
1:00 AM
Oct 25
70 °FClear.7 mph35%29.92 "Hg10 mi
12:00 AM73 °FClear.12 mph33%29.92 "Hg10 mi
11:00 PM
Oct 24
75 °FClear.9 mph34%29.92 "Hg10 mi
10:00 PM75 °FClear.6 mph34%29.95 "Hg10 mi
9:00 PM79 °FClear.13 mph28%29.92 "Hg10 mi
8:00 PM82 °FSunny.15 mph25%29.92 "Hg10 mi
7:00 PM86 °FPassing clouds.16 mph20%29.92 "HgN/A
6:00 PM88 °FPassing clouds.15 mph21%29.92 "HgN/A
5:00 PM90 °FPassing clouds.14 mph22%29.92 "HgN/A
4:00 PM88 °FPassing clouds.13 mph24%29.92 "HgN/A
3:00 PM88 °FPassing clouds.14 mph24%29.95 "HgN/A
2:00 PM86 °FPassing clouds.12 mph25%29.98 "HgN/A
1:00 PM84 °FPassing clouds.8 mph27%30.01 "HgN/A
12:00 PM79 °FPassing clouds.8 mph34%30.04 "HgN/A
11:00 AM75 °FPassing clouds.5 mph41%30.04 "HgN/A
10:00 AM70 °FSunny.2 mph46%30.04 "Hg10 mi
9:00 AM66 °FSunny.2 mph52%30.04 "Hg10 mi
8:00 AM57 °FSunny.2 mph72%30.04 "Hg10 mi
7:00 AM54 °FPassing clouds.3 mph77%30.04 "HgN/A
6:00 AM55 °FClear.2 mph72%30.04 "Hg10 mi
5:00 AM59 °FClear.No wind63%30.04 "Hg10 mi
4:00 AM59 °FClear.5 mph63%30.04 "Hg10 mi
3:00 AM61 °FClear.6 mph63%30.04 "Hg10 mi
2:00 AM61 °FClear.5 mph59%30.04 "Hg10 mi
Weather by CustomWeather, © 2014

See weather overviewHow to use our weather pages